sat.trackr.live / text

‹ back to catalog

STARLINK-32265

NORAD 60415 · 2024-141T

PAYLOAD ACTIVE UNKNOWN

§ Identity

Operator
Country
US
Launch date
2024-08-10
Launch site
AFETR
Launch vehicle
Mass (kg)
RCS (m²)

Purposes: comms

External: N2YO · Heavens-Above · Gunter

§ Orbital elements

Epoch: 2026-05-24T23:52:19.670304Z

Period
93.85 min
Inclination
53.1613°
Eccentricity
0.0000927
Mean motion
15.34392083 rev/d
Perigee alt
462.1 km
Apogee alt
463.4 km
Semi-major
6,840.9 km
B*
-7.4166e-7
RAAN
247.4201°
Arg perigee
106.2109°
Mean anomaly
253.8996°
Rev number
10,127

§ Raw data

STARLINK-322651 60415U 24141T   26144.99467211 -.00000401  00000+0 -74166-6 0  99902 60415  53.1613 247.4201 0000927 106.2109 253.8996 15.34392083101275

JSON: /api/v1/satellites/60415 · /tle

For live sub-satellite position, see the globe view (requires WebGL).

§ Visibility from observer

Set your observer location to see the next 7 days of passes ≥ 10°. The values pass through the URL so the page stays shareable.

No JS? Fill the form by hand. The geolocation button needs JavaScript.